Tracking 19709 objects as of 17-Jun-2019
HD Live streaming from Space Station
objects crossing your sky now

THORAD DELTA 1 DEB

Track THORAD DELTA 1 DEB now!
10-day predictions


NORAD ID: 8561
Int'l Code: 1974-089CY
Perigee: 1,356.0 km
Apogee: 1,459.2 km
Inclination: 101.7 °
Period: 113.8 minutes
Semi major axis: 7778 km
RCS: 0.0788 m2 (small)
Launch date: November 15, 1974
Source: United States (US)
Launch site: AIR FORCE WESTERN TEST RANGE (AFWTR)

Note: This is SATELLITE DEBRIS
aabbcc
Your satellite tracking list
Your tracking list is empty




NASA's NSSDC Master Catalog

Two Line Element Set (TLE):
1  8561U 74089CY  19167.94263299  .00000111  00000-0  83660-3 0  9995
2  8561 101.6621 169.8644 0066302 214.9355 215.0616 12.65463045 51826
Source of the keplerian elements: AFSPC